Location: Yellowknife
(62.4500°N, 114.3500°W)
Time: 01:45:47
(UTC-06:00)

Envisat - Visible Passes

Search period start: 14 October 2019 00:00
Search period end: 24 October 2019 00:00
Orbit: 764 x 766 km, 98.1° (Epoch: 14 October)

Date Brightness Start Highest point End Pass type
(mag) Time Alt. Az. Time Alt. Az. Time Alt. Az.
14 Oct 6.1 07:15:01 10° NE 07:18:31 18° E 07:22:00 10° SE visible
14 Oct 4.8 20:19:51 10° SSW 20:24:30 35° W 20:29:11 10° NNW visible
15 Oct 6.6 06:39:49 10° ENE 06:41:04 11° ENE 06:42:19 10° E visible
15 Oct 3.8 19:42:27 10° S 19:47:28 57° WSW 19:52:30 10° NNW visible
15 Oct 6.0 21:24:42 10° WSW 21:27:38 15° W 21:30:34 10° NW visible
16 Oct 3.0 19:05:29 10° SSE 19:10:35 88° ENE 19:15:44 10° NNW visible
16 Oct 5.4 20:46:08 10° SW 20:50:18 25° W 20:54:29 10° NNW visible
17 Oct 6.1 07:04:00 10° NE 07:07:05 16° E 07:10:08 10° ESE visible
17 Oct 4.5 20:08:21 10° SSW 20:13:09 40° W 20:17:57 10° NNW visible
17 Oct 6.4 21:52:52 10° W 21:53:39 10° WNW 21:54:26 10° WNW visible
18 Oct 3.5 19:31:05 10° S 19:36:09 66° WSW 19:41:15 10° NNW visible
18 Oct 5.9 21:12:48 10° SW 21:16:11 18° W 21:19:35 10° NW visible
19 Oct 5.9 07:29:01 10° NE 07:32:59 22° E 07:36:56 10° SE visible
19 Oct 3.0 18:54:14 10° SSE 18:59:19 77° ENE 19:04:27 10° NNW visible
19 Oct 5.1 20:34:31 10° SSW 20:38:54 28° W 20:43:18 10° NNW visible
20 Oct 6.3 06:53:06 10° NE 06:55:37 14° ENE 06:58:07 10° ESE visible
20 Oct 4.2 19:56:53 10° S 20:01:47 46° W 20:06:43 10° NNW visible
20 Oct 6.2 21:40:07 10° W 21:42:09 12° WNW 21:44:12 10° NW visible
21 Oct 3.2 19:19:45 10° SSE 19:24:51 77° WSW 19:29:59 10° NNW visible
21 Oct 5.7 21:00:59 10° SW 21:04:44 20° W 21:08:31 10° NW visible
22 Oct 6.0 07:17:55 10° NE 07:21:34 19° E 07:25:12 10° SE visible
22 Oct 3.0 18:43:01 10° SSE 18:48:04 67° ENE 18:53:09 10° NNW visible
22 Oct 4.8 20:22:56 10° SSW 20:27:30 33° W 20:32:07 10° NNW visible
23 Oct 6.4 06:42:25 10° NE 06:44:08 12° ENE 06:45:50 10° E visible
23 Oct 3.8 19:45:28 10° S 19:50:27 54° W 19:55:29 10° NNW visible
23 Oct 6.0 21:27:57 10° WSW 21:30:41 14° WNW 21:33:24 10° NW visible
